CPA431 RCKH-VHHX

Flight info

Callsign CPA431
Flight time 1h 3m
Altitude 30000
Route PARAS2A PARAS T7 WP521 G581 MAGOG
Aircraft B77W/H-SDE1E2E3FGHIJ2J3J4J5M1RWXY/LB1D1

Departure

Time 2026-04-24 14:01
Airport Kaohsiung International Airport (RCKH)

Arrival

Time 2026-04-24 15:05
Airport Hong Kong International Airport Kai Tak (VHHX)
Time Latitude Longitude Altitude Speed Heading
2026-04-24 13:24 22.57264 120.34240 38 ft 0 kts 272°
2026-04-24 13:53 22.57262 120.34256 38 ft 4 kts 255°
2026-04-24 13:54 22.57267 120.34276 34 ft 4 kts 258°
2026-04-24 13:54 22.57271 120.34285 36 ft 4 kts 285°
2026-04-24 13:54 22.57274 120.34272 36 ft 3 kts 283°
2026-04-24 13:54 22.57275 120.34271 37 ft 0 kts 294°
2026-04-24 13:55 22.57252 120.34332 38 ft 0 kts
2026-04-24 13:57 22.57263 120.34332 36 ft 8 kts 360°
2026-04-24 13:57 22.57338 120.34330 38 ft 11 kts 359°
2026-04-24 13:57 22.57400 120.34299 38 ft 10 kts 293°
2026-04-24 13:58 22.57407 120.34225 37 ft 10 kts 273°
2026-04-24 13:58 22.57410 120.34153 37 ft 10 kts 271°
2026-04-24 13:58 22.57412 120.34045 37 ft 15 kts 270°
2026-04-24 13:58 22.57415 120.33933 36 ft 15 kts 274°
2026-04-24 13:59 22.57420 120.33826 36 ft 14 kts 271°
2026-04-24 13:59 22.57422 120.33723 35 ft 13 kts 271°
2026-04-24 13:59 22.57457 120.33644 35 ft 12 kts 325°
2026-04-24 13:59 22.57527 120.33589 35 ft 14 kts 320°
2026-04-24 14:00 22.57595 120.33524 34 ft 13 kts 326°
2026-04-24 14:00 22.57680 120.33507 33 ft 12 kts
2026-04-24 14:00 22.57744 120.33548 34 ft 11 kts 72°
2026-04-24 14:00 22.57747 120.33675 35 ft 31 kts 91°
2026-04-24 14:01 22.57732 120.34175 37 ft 104 kts 92°
2026-04-24 14:01 22.57704 120.35191 41 ft 164 kts 92°
2026-04-24 14:01 22.57661 120.36561 280 ft 191 kts 91°
2026-04-24 14:01 22.57612 120.38007 918 ft 191 kts 91°
2026-04-24 14:02 22.57470 120.39464 1436 ft 202 kts 110°
2026-04-24 14:02 22.56564 120.40609 1949 ft 207 kts 154°
2026-04-24 14:02 22.55129 120.40800 2307 ft 219 kts 196°
2026-04-24 14:02 22.53837 120.39856 2574 ft 237 kts 229°
2026-04-24 14:03 22.52932 120.38771 2771 ft 254 kts 226°
2026-04-24 14:03 22.51680 120.37414 3394 ft 262 kts 224°
2026-04-24 14:03 22.50353 120.36031 4137 ft 267 kts 224°
2026-04-24 14:03 22.48988 120.34619 4966 ft 268 kts 224°
2026-04-24 14:04 22.47650 120.33240 5761 ft 270 kts 224°
2026-04-24 14:04 22.46284 120.31832 6543 ft 271 kts 225°
2026-04-24 14:04 22.44912 120.30419 7290 ft 272 kts 225°
2026-04-24 14:04 22.43538 120.29004 8052 ft 274 kts 225°
2026-04-24 14:05 22.42154 120.27580 8793 ft 276 kts 225°
2026-04-24 14:05 22.40755 120.26139 9548 ft 278 kts 225°
2026-04-24 14:05 22.39354 120.24697 10263 ft 280 kts 225°
2026-04-24 14:05 22.37909 120.23210 10644 ft 298 kts 225°
2026-04-24 14:06 22.36358 120.21613 10830 ft 324 kts 225°
2026-04-24 14:06 22.34666 120.19871 10997 ft 348 kts 224°
2026-04-24 14:06 22.32875 120.18031 11465 ft 361 kts 224°
2026-04-24 14:06 22.31047 120.16144 12179 ft 364 kts 226°
2026-04-24 14:07 22.29536 120.13932 12879 ft 370 kts 243°
2026-04-24 14:07 22.28724 120.11290 13821 ft 372 kts 256°
2026-04-24 14:07 22.28190 120.08552 14607 ft 374 kts 256°
2026-04-24 14:07 22.27640 120.05791 15303 ft 379 kts 256°
2026-04-24 14:08 22.27056 120.02986 16011 ft 384 kts 255°
2026-04-24 14:08 22.26457 120.00162 16741 ft 387 kts 255°
2026-04-24 14:08 22.25849 119.97315 17456 ft 391 kts 255°
2026-04-24 14:08 22.25241 119.94472 18156 ft 395 kts 255°
2026-04-24 14:09 22.24619 119.91568 18767 ft 399 kts 255°
2026-04-24 14:09 22.23991 119.88631 19409 ft 402 kts 255°
2026-04-24 14:09 22.23362 119.85688 19964 ft 405 kts 255°
2026-04-24 14:09 22.22727 119.82721 20361 ft 408 kts 255°
2026-04-24 14:10 22.22301 119.80735 20760 ft 410 kts 256°
2026-04-24 14:10 22.21440 119.76718 21634 ft 411 kts 256°
2026-04-24 14:10 22.20790 119.73695 22231 ft 414 kts 256°
2026-04-24 14:10 22.20127 119.70648 22768 ft 418 kts 256°
2026-04-24 14:11 22.19456 119.67588 23316 ft 421 kts 256°
2026-04-24 14:11 22.18818 119.64492 23801 ft 424 kts 259°
2026-04-24 14:11 22.18410 119.58133 24680 ft 431 kts 269°
2026-04-24 14:12 22.18604 119.54874 25104 ft 435 kts 272°
2026-04-24 14:12 22.18865 119.51608 25527 ft 437 kts 273°
2026-04-24 14:12 22.19136 119.48327 25933 ft 440 kts 273°
2026-04-24 14:12 22.19408 119.45029 26339 ft 443 kts 273°
2026-04-24 14:13 22.19676 119.41706 26752 ft 445 kts 273°
2026-04-24 14:13 22.19941 119.38360 27152 ft 448 kts 272°
2026-04-24 14:13 22.20203 119.35003 27555 ft 450 kts 273°
2026-04-24 14:13 22.20462 119.31632 27941 ft 452 kts 272°
2026-04-24 14:14 22.20721 119.28235 28308 ft 455 kts 272°
2026-04-24 14:14 22.20977 119.24872 28659 ft 457 kts 272°
2026-04-24 14:14 22.21495 119.18024 29574 ft 456 kts 272°
2026-04-24 14:15 22.21752 119.14618 30063 ft 454 kts 272°
2026-04-24 14:15 22.22006 119.11236 30029 ft 453 kts 272°
2026-04-24 14:15 22.22514 119.04456 30046 ft 452 kts 272°
2026-04-24 14:16 22.23014 118.97727 30046 ft 453 kts 272°
2026-04-24 14:17 22.23765 118.87565 30049 ft 452 kts 272°
2026-04-24 14:17 22.24509 118.77404 30044 ft 452 kts 272°
2026-04-24 14:18 22.25001 118.70644 30046 ft 450 kts 272°
2026-04-24 14:18 22.25488 118.63919 30052 ft 448 kts 272°
2026-04-24 14:19 22.25970 118.57207 30053 ft 448 kts 272°
2026-04-24 14:19 22.26448 118.50511 30048 ft 447 kts 272°
2026-04-24 14:20 22.26921 118.43853 30052 ft 447 kts 271°
2026-04-24 14:20 22.27395 118.37152 30050 ft 447 kts 271°
2026-04-24 14:21 22.27866 118.30439 30048 ft 448 kts 271°
2026-04-24 14:21 22.28335 118.23731 30051 ft 448 kts 271°
2026-04-24 14:22 22.28801 118.17008 30047 ft 449 kts 271°
2026-04-24 14:23 22.29494 118.06950 30047 ft 450 kts 271°
2026-04-24 14:23 22.29956 118.00201 30049 ft 450 kts 271°
2026-04-24 14:24 22.30414 117.93458 30048 ft 450 kts 271°
2026-04-24 14:24 22.30870 117.86704 30050 ft 451 kts 271°
2026-04-24 14:25 22.31247 117.81095 30045 ft 451 kts 271°
2026-04-24 14:25 22.31775 117.73182 30046 ft 452 kts 271°
2026-04-24 14:26 22.32221 117.66449 30053 ft 452 kts 271°
2026-04-24 14:26 22.32626 117.60310 30046 ft 453 kts 271°
2026-04-24 14:27 22.33071 117.53508 30053 ft 455 kts 271°
2026-04-24 14:27 22.33293 117.46716 30048 ft 450 kts 266°
2026-04-24 14:28 22.33156 117.39942 30054 ft 451 kts 266°
2026-04-24 14:28 22.33036 117.34292 30048 ft 452 kts 266°
2026-04-24 14:29 22.32902 117.27496 30049 ft 453 kts 266°
2026-04-24 14:29 22.32774 117.20678 30044 ft 453 kts 266°
2026-04-24 14:30 22.32645 117.13874 30048 ft 453 kts 266°
2026-04-24 14:30 22.32515 117.07108 30046 ft 453 kts 266°
2026-04-24 14:31 22.32380 117.00297 30049 ft 453 kts 266°
2026-04-24 14:31 22.32243 116.93488 30044 ft 453 kts 266°
2026-04-24 14:32 22.32102 116.86665 30047 ft 453 kts 266°
2026-04-24 14:32 22.31959 116.79851 30045 ft 454 kts 265°
2026-04-24 14:33 22.31812 116.73032 30043 ft 454 kts 265°
2026-04-24 14:33 22.31664 116.66250 30043 ft 454 kts 265°
2026-04-24 14:34 22.31512 116.59449 30044 ft 453 kts 265°
2026-04-24 14:34 22.31358 116.52651 30042 ft 452 kts 266°
2026-04-24 14:35 22.31202 116.45883 30047 ft 450 kts 266°
2026-04-24 14:35 22.31043 116.39122 30045 ft 449 kts 266°
2026-04-24 14:36 22.30882 116.32429 30038 ft 448 kts 266°
2026-04-24 14:36 22.30718 116.25695 30045 ft 447 kts 266°
2026-04-24 14:37 22.30552 116.18984 30047 ft 447 kts 266°
2026-04-24 14:37 22.30383 116.12276 30046 ft 447 kts 266°
2026-04-24 14:38 22.30211 116.05555 30052 ft 448 kts 266°
2026-04-24 14:38 22.30035 115.98822 30042 ft 448 kts 266°
2026-04-24 14:39 22.29858 115.92090 30043 ft 448 kts 266°
2026-04-24 14:39 22.29677 115.85374 30061 ft 456 kts 266°
2026-04-24 14:40 22.29469 115.78444 30055 ft 466 kts 265°
2026-04-24 14:40 22.29205 115.71405 30049 ft 470 kts 265°
2026-04-24 14:41 22.28936 115.64349 30044 ft 470 kts 265°
2026-04-24 14:41 22.28674 115.57363 29733 ft 455 kts 265°
2026-04-24 14:41 22.28548 115.53979 29506 ft 447 kts 265°
2026-04-24 14:42 22.28423 115.50678 29226 ft 444 kts 265°
2026-04-24 14:42 22.28297 115.47363 28508 ft 437 kts 265°
2026-04-24 14:42 22.28174 115.44136 27917 ft 429 kts 265°
2026-04-24 14:42 22.28044 115.40830 27351 ft 452 kts 265°
2026-04-24 14:43 22.27905 115.37352 26751 ft 475 kts 266°
2026-04-24 14:43 22.27762 115.33722 26325 ft 488 kts 266°
2026-04-24 14:43 22.27622 115.30088 25810 ft 472 kts 266°
2026-04-24 14:43 22.27493 115.26661 24932 ft 446 kts 266°
2026-04-24 14:44 22.27363 115.23358 24278 ft 436 kts 266°
2026-04-24 14:44 22.27231 115.20072 23703 ft 438 kts 265°
2026-04-24 14:44 22.27099 115.16794 23038 ft 429 kts 266°
2026-04-24 14:44 22.26946 115.13661 22516 ft 406 kts 263°
2026-04-24 14:45 22.26541 115.10751 22000 ft 390 kts 258°
2026-04-24 14:45 22.25974 115.07869 21540 ft 392 kts 257°
2026-04-24 14:45 22.25386 115.04996 21062 ft 390 kts 257°
2026-04-24 14:45 22.24826 115.02144 20585 ft 386 kts 258°
2026-04-24 14:46 22.24301 114.99314 20115 ft 383 kts 259°
2026-04-24 14:46 22.23794 114.96506 19651 ft 379 kts 259°
2026-04-24 14:46 22.23295 114.93719 19195 ft 376 kts 260°
2026-04-24 14:46 22.22976 114.90940 18739 ft 372 kts 267°
2026-04-24 14:47 22.22919 114.88157 18292 ft 368 kts 270°
2026-04-24 14:47 22.22942 114.85439 17782 ft 366 kts 270°
2026-04-24 14:47 22.22969 114.82694 17279 ft 366 kts 270°
2026-04-24 14:47 22.22979 114.79943 16782 ft 368 kts 270°
2026-04-24 14:48 22.22970 114.77176 16304 ft 367 kts 269°
2026-04-24 14:48 22.22948 114.74420 15824 ft 368 kts 269°
2026-04-24 14:48 22.22919 114.71662 15353 ft 368 kts 269°
2026-04-24 14:48 22.22887 114.68894 14868 ft 369 kts 269°
2026-04-24 14:49 22.22853 114.66126 14368 ft 370 kts 269°
2026-04-24 14:49 22.22821 114.63603 13911 ft 369 kts 269°
2026-04-24 14:49 22.22786 114.60829 13358 ft 367 kts 269°
2026-04-24 14:49 22.22751 114.58081 12805 ft 365 kts 269°
2026-04-24 14:50 22.22716 114.55346 12267 ft 364 kts 269°
2026-04-24 14:50 22.22681 114.52620 11735 ft 362 kts 269°
2026-04-24 14:50 22.22645 114.49907 11240 ft 360 kts 269°
2026-04-24 14:50 22.22608 114.47213 10773 ft 358 kts 269°
2026-04-24 14:51 22.22572 114.44540 10311 ft 355 kts 269°
2026-04-24 14:51 22.22536 114.41877 9834 ft 353 kts 268°
2026-04-24 14:51 22.22499 114.39242 9322 ft 351 kts 268°
2026-04-24 14:51 22.22463 114.36632 8820 ft 344 kts 268°
2026-04-24 14:52 22.22426 114.34060 8336 ft 342 kts 268°
2026-04-24 14:52 22.22389 114.31491 7855 ft 340 kts 268°
2026-04-24 14:52 22.22352 114.28946 7370 ft 339 kts 268°
2026-04-24 14:52 22.22315 114.26406 6911 ft 338 kts 268°
2026-04-24 14:53 22.22278 114.23898 6432 ft 336 kts 268°
2026-04-24 14:53 22.22241 114.21378 5942 ft 335 kts 268°
2026-04-24 14:53 22.22203 114.18865 5458 ft 334 kts 268°
2026-04-24 14:53 22.22165 114.16364 4963 ft 333 kts 268°
2026-04-24 14:54 22.22126 114.13878 4629 ft 327 kts 268°
2026-04-24 14:54 22.22086 114.11421 4526 ft 329 kts 268°
2026-04-24 14:54 22.22051 114.08984 4498 ft 317 kts 268°
2026-04-24 14:54 22.22015 114.06694 4496 ft 302 kts 268°
2026-04-24 14:55 22.21991 114.05190 4483 ft 291 kts 268°
2026-04-24 14:55 22.21942 114.02395 4483 ft 271 kts 267°
2026-04-24 14:55 22.21880 114.00411 4478 ft 257 kts 266°
2026-04-24 14:55 22.21815 113.98536 4475 ft 242 kts 266°
2026-04-24 14:56 22.21756 113.96771 4475 ft 230 kts 266°
2026-04-24 14:56 22.21696 113.95022 4509 ft 235 kts 266°
2026-04-24 14:56 22.21637 113.93264 4496 ft 232 kts 266°
2026-04-24 14:56 22.21579 113.91541 4476 ft 227 kts 266°
2026-04-24 14:57 22.21564 113.89849 4489 ft 226 kts 277°
2026-04-24 14:57 22.22189 113.88295 4513 ft 231 kts 309°
2026-04-24 14:57 22.23493 113.87293 4504 ft 241 kts 339°
2026-04-24 14:57 22.25162 113.87107 4504 ft 244 kts 10°
2026-04-24 14:58 22.26645 113.87872 4475 ft 233 kts 41°
2026-04-24 14:58 22.27761 113.89118 4540 ft 231 kts 46°
2026-04-24 14:58 22.28838 113.90354 4532 ft 221 kts 46°
2026-04-24 14:58 22.29887 113.91517 4512 ft 212 kts 43°
2026-04-24 14:59 22.30929 113.92618 4501 ft 207 kts 53°
2026-04-24 14:59 22.31448 113.94019 4491 ft 203 kts 81°
2026-04-24 14:59 22.31687 113.95561 4122 ft 207 kts 84°
2026-04-24 14:59 22.31837 113.97060 3879 ft 193 kts 86°
2026-04-24 15:00 22.31935 113.98446 3593 ft 177 kts 88°
2026-04-24 15:00 22.32018 113.99712 3408 ft 166 kts 88°
2026-04-24 15:00 22.32099 114.00940 3589 ft 156 kts 88°
2026-04-24 15:00 22.32175 114.02102 3248 ft 160 kts 88°
2026-04-24 15:01 22.32261 114.03359 3091 ft 168 kts 88°
2026-04-24 15:01 22.32341 114.04590 2764 ft 165 kts 89°
2026-04-24 15:01 22.32409 114.05802 2506 ft 155 kts 88°
2026-04-24 15:01 22.32470 114.06912 2244 ft 146 kts 89°
2026-04-24 15:02 22.32521 114.08014 1922 ft 145 kts 88°
2026-04-24 15:02 22.32635 114.09093 1936 ft 150 kts 79°
2026-04-24 15:02 22.32762 114.10234 1687 ft 153 kts 93°
2026-04-24 15:02 22.32686 114.11357 1521 ft 153 kts 91°
2026-04-24 15:03 22.32707 114.12127 1448 ft 155 kts 87°
2026-04-24 15:03 22.32762 114.13697 1270 ft 159 kts 86°
2026-04-24 15:03 22.32853 114.14880 1180 ft 159 kts 83°
2026-04-24 15:03 22.33008 114.16063 931 ft 159 kts 79°
2026-04-24 15:04 22.33224 114.17207 687 ft 147 kts 81°
2026-04-24 15:04 22.33186 114.18282 482 ft 146 kts 109°
2026-04-24 15:04 22.32586 114.19191 191 ft 149 kts 131°
2026-04-24 15:04 22.31906 114.19948 37 ft 133 kts 131°
2026-04-24 15:05 22.31337 114.20588 37 ft 98 kts 134°
2026-04-24 15:05 22.30973 114.20995 37 ft 49 kts 134°
2026-04-24 15:05 22.30838 114.21184 37 ft 14 kts 111°
2026-04-24 15:05 22.30849 114.21276 37 ft 9 kts 29°
2026-04-24 15:06 22.30899 114.21243 37 ft 8 kts 315°
2026-04-24 15:06 22.30936 114.21196 37 ft 8 kts 309°
2026-04-24 15:06 22.30978 114.21143 37 ft 9 kts 315°
2026-04-24 15:06 22.31026 114.21090 36 ft 13 kts 314°
2026-04-24 15:07 22.31113 114.20992 38 ft 18 kts 313°
2026-04-24 15:07 22.31198 114.20897 38 ft 17 kts 314°
2026-04-24 15:07 22.31280 114.20805 38 ft 17 kts 314°
2026-04-24 15:07 22.31358 114.20717 38 ft 16 kts 314°
2026-04-24 15:08 22.31433 114.20633 38 ft 15 kts 314°
2026-04-24 15:08 22.31503 114.20553 39 ft 14 kts 314°
2026-04-24 15:08 22.31571 114.20480 37 ft 13 kts 315°
2026-04-24 15:08 22.31635 114.20411 37 ft 13 kts 314°
2026-04-24 15:09 22.31728 114.20305 37 ft 25 kts 314°
2026-04-24 15:09 22.31835 114.20186 37 ft 22 kts 314°
2026-04-24 15:09 22.31938 114.20071 37 ft 21 kts 314°
2026-04-24 15:09 22.32036 114.19960 37 ft 20 kts 314°
2026-04-24 15:10 22.32130 114.19855 36 ft 19 kts 314°
2026-04-24 15:10 22.32221 114.19754 38 ft 18 kts 314°
2026-04-24 15:10 22.32308 114.19658 38 ft 17 kts 315°
2026-04-24 15:10 22.32396 114.19571 38 ft 17 kts 317°
2026-04-24 15:11 22.32480 114.19489 38 ft 16 kts 318°
2026-04-24 15:11 22.32554 114.19419 38 ft 10 kts 327°
2026-04-24 15:11 22.32615 114.19433 38 ft 9 kts 36°
2026-04-24 15:11 22.32661 114.19442 38 ft 4 kts 334°
2026-04-24 15:12 22.32677 114.19429 38 ft 1 kts 319°
2026-04-24 15:12 22.32691 114.19414 38 ft 0 kts 315°
2026-04-24 15:12 22.32697 114.19407 38 ft 0 kts 315°
2026-04-24 15:13 22.32698 114.19407 38 ft 0 kts 314°